Temp
54 54 53 53 53 53 53 54 54 53 53 54 54 54 54 53 48 45 44 45 49 53 59 58 60 66 66 64 65 65 67 64 62 68 66 66 65 62 59 59 56 55 53 51 51 50 50 51 51 53 55 56 57 57 56 56 56 56 57 58 58 57 58 58 59 63 65 69 68 65 64 62 61 60
53 53 53 52 54 54 52 54 55 54 55 54 54 54 54 53 51 50 47 45 49 51 55 57 59 63 63 65 64 66 66 64 66 66 66 65 65 58 60 58 56 56 53 51 51 50 50 51 52 53 54 54 56 55 55 54 54 54 55 56 57 57 59 58 59 61 63 64 64 63 62 62 60 60
55 55 55 52 54 52 53 53 54 54 54 54 55 54 54 53 53 51 50 46 47 54 54 54 58 59 61 64 62 62 63 65 65 65 63 67 62 61 63 59 58 56 55 52 51 51 51 50 50 51 53 54 54 55 55 55 54 54 54 54 56 58 59 59 59 61 62 62 62 62 62 61 61 60
54 55 56 54 54 53 52 53 53 53 53 54 56 54 54 53 53 54 51 48 49 51 55 54 57 60 60 61 61 61 63 65 61 65 65 65 61 65 64 60 59 58 55 54 52 52 52 51 51 50 50 50 52 52 52 54 54 54 53 53 54 56 58 59 59 62 63 61 62 62 61 61 60 60
55 56 56 54 56 55 54 52 53 54 54 54 54 53 54 53 52 54 52 50 50 49 50 55 57 59 60 60 61 61 60 61 62 62 63 63 62 63 63 64 59 58 57 55 53 52 52 52 51 50 50 50 50 51 51 52 53 52 50 51 51 53 57 59 59 60 63 62 61 60 60 60 59 59
57 54 54 55 54 56 54 52 56 56 56 56 56 54 54 53 54 52 53 50 50 50 50 52 55 57 58 56 61 60 60 60 60 62 63 65 65 66 64 64 63 59 57 55 55 54 53 52 51 50 50 49 49 50 50 49 48 50 50 49 49 53 54 56 58 58 59 60 60 60 59 59 59 59
55 56 56 55 55 56 55 54 52 53 54 55 54 53 54 53 52 54 54 52 50 49 49 51 54 53 54 54 59 61 61 60 62 62 62 64 65 66 63 63 64 60 57 55 55 54 53 53 51 50 50 49 48 48 49 49 48 48 48 48 49 49 49 49 51 54 54 57 59 59 59 58 59 61
55 54 53 53 52 53 54 54 53 52 52 52 52 52 53 52 52 52 51 52 52 49 50 48 53 54 53 53 58 61 61 60 60 62 63 63 64 64 66 66 65 64 58 55 54 54 54 52 51 50 49 49 49 48 48 48 48 48 48 48 47 47 47 47 48 48 51 56 58 58 57 58 60 63
55 54 54 54 52 51 52 51 52 52 51 54 51 51 51 52 52 52 51 51 50 49 49 49 51 52 54 57 57 58 58 58 59 60 60 61 61 60 60 62 66 60 58 58 58 56 54 52 51 50 49 49 49 48 48 48 48 49 49 48 48 47 47 47 47 47 48 49 51 56 57 57 61 62
54 55 54 53 52 51 51 50 51 52 52 51 51 50 51 51 50 48 49 50 49 48 47 47 48 51 52 52 51 56 57 55 55 56 57 58 58 57 57 59 62 64 65 61 62 58 58 58 56 54 51 49 48 48 48 49 49 49 49 48 48 47 47 46 46 46 46 47 47 49 53 56 59 63
55 54 53 52 52 51 50 50 50 48 47 49 47 48 48 49 48 48 47 48 47 46 46 46 46 47 50 50 50 55 57 56 55 53 52 52 56 55 55 55 59 60 60 59 56 57 56 55 56 54 52 50 50 49 49 49 49 49 48 48 47 47 46 46 46 46 46 46 46 46 47 50 55 60
54 54 54 53 52 51 50 49 47 47 47 46 46 46 46 45 45 45 45 45 44 44 44 43 43 44 45 47 49 53 52 51 51 53 50 47 48 50 53 54 54 56 57 57 59 58 57 57 57 56 55 54 51 50 50 50 49 49 48 47 46 46 46 46 46 46 46 46 46 46 46 46 48 53
53 53 53 52 51 53 53 51 50 50 50 47 48 45 45 45 43 43 42 43 42 43 43 43 44 43 44 44 45 45 44 45 46 48 48 47 48 49 50 52 56 57 54 54 54 56 57 57 56 57 57 59 57 55 51 51 52 50 48 47 47 46 46 46 46 46 46 46 46 46 46 46 46 46
53 53 52 54 55 53 51 49 46 46 48 49 49 45 45 46 45 43 43 42 42 42 41 40 41 41 41 42 43 44 45 47 48 46 46 45 46 47 47 48 50 53 51 50 49 52 56 55 55 56 55 57 57 58 58 57 54 52 49 48 47 46 46 46 46 46 46 46 46 45 45 45 45 45
53 52 53 53 53 53 51 47 43 43 45 46 47 47 48 47 44 42 42 41 42 42 42 42 41 40 41 42 44 44 46 46 44 44 44 44 44 42 41 41 45 49 50 48 47 49 53 54 53 55 55 56 56 57 57 51 49 49 49 47 46 46 45 45 45 45 45 45 45 45 45 45 45 45
54 55 55 53 53 52 51 49 48 47 46 44 43 42 43 44 45 45 45 43 41 40 41 40 40 40 41 42 43 43 43 43 45 45 45 44 42 41 40 40 41 46 49 46 46 46 51 53 52 52 55 56 56 55 48 46 46 46 47 46 45 45 45 44 44 44 44 44 44 44 44 44 44 44
55 55 54 54 53 55 54 55 52 51 48 45 43 43 44 43 41 39 39 42 45 43 40 40 41 41 42 42 42 43 44 45 44 43 42 42 41 41 41 42 43 46 48 46 45 45 48 50 50 51 54 55 56 56 49 46 45 45 45 45 44 44 44 44 44 44 43 43 43 43 43 43 43 43
56 54 53 53 53 53 54 54 51 49 48 47 46 44 42 42 44 42 41 40 40 41 42 41 41 43 43 43 44 46 45 44 44 43 43 42 41 42 43 45 45 46 48 45 44 43 46 48 48 48 50 52 54 55 51 45 44 45 45 44 44 43 43 43 42 42 42 42 42 42 43 42 42 42
53 51 51 51 52 52 51 52 51 50 48 44 45 43 42 42 43 43 43 42 42 42 42 41 42 43 44 44 45 45 45 45 45 44 43 43 43 43 43 42 43 43 45 45 43 41 46 48 48 48 49 51 52 53 49 45 44 44 44 43 43 42 42 42 41 42 42 42 42 42 41 41 41 41
50 51 51 51 52 52 52 49 46 49 50 47 44 43 41 41 41 42 45 45 45 46 45 43 43 43 44 43 43 43 42 42 42 43 43 42 41 41 40 40 42 41 43 46 44 42 44 47 46 48 49 48 48 51 50 45 44 44 43 42 42 42 42 42 42 42 42 41 41 42 41 41 41 41
51 52 53 54 52 53 50 42 39 39 45 47 44 41 40 41 41 42 44 44 43 42 41 41 41 41 40 41 41 41 41 41 41 39 38 38 39 38 37 39 39 40 40 42 44 44 42 45 45 45 46 48 47 47 49 45 42 43 43 42 42 42 41 42 42 42 42 42 42 42 42 42 41 41
51 53 55 54 53 47 42 39 39 40 42 41 39 39 38 38 38 39 40 43 42 42 42 41 41 41 41 42 42 43 43 42 43 41 38 40 38 38 37 36 38 39 41 41 45 42 41 44 46 45 45 43 44 47 46 41 41 40 40 41 42 42 42 42 42 42 42 42 42 42 42 42 41 42
52 49 43 45 44 43 41 38 39 40 41 39 38 37 36 36 36 37 36 37 37 37 38 39 40 40 41 43 42 43 43 43 44 43 42 41 39 38 38 38 38 37 39 41 43 40 40 42 41 41 41 40 40 43 44 40 40 40 40 41 40 42 41 42 42 41 42 42 42 42 42 41 41 42
49 44 43 40 38 38 38 38 38 38 39 38 38 37 36 35 35 37 36 38 38 37 37 36 37 38 38 39 40 40 41 42 44 42 42 41 40 39 39 39 39 37 40 43 46 44 44 41 39 41 40 38 35 41 44 42 40 42 43 43 42 42 42 41 41 41 41 42 41 41 41 42 41 43
46 44 41 40 39 38 37 38 38 38 39 39 38 36 36 36 38 38 36 37 40 36 36 37 37 37 37 37 37 37 38 39 40 41 40 41 41 41 40 40 40 41 44 47 46 47 43 42 41 40 39 39 40 40 41 43 42 44 45 44 43 43 42 42 41 40 41 41 40 41 41 41 41 43
46 44 42 41 39 38 38 38 39 39 39 38 37 36 37 38 37 37 38 36 36 35 35 34 35 35 36 35 37 38 39 41 42 41 41 41 41 42 44 44 42 41 42 47 44 47 45 43 43 42 41 38 39 38 37 40 42 45 44 43 43 43 42 41 40 39 38 38 38 39 40 40 41 42
43 42 41 40 40 39 40 40 39 39 38 38 36 37 37 37 37 37 35 35 34 33 34 34 35 36 37 38 38 39 40 41 42 43 43 44 44 43 44 46 46 45 46 47 49 48 46 44 45 43 42 42 40 39 38 37 38 40 43 42 42 41 41 40 38 37 36 36 39 40 40 39 39 39
41 41 38 39 39 39 40 40 39 38 38 37 37 37 37 37 37 35 35 34 34 34 34 35 36 38 39 40 40 40 41 42 43 43 44 44 45 45 45 45 46 46 47 47 48 48 47 45 45 45 44 43 41 39 38 39 38 38 39 40 41 41 40 39 38 38 37 36 38 39 39 39 40 39
40 39 38 38 39 39 39 39 39 38 38 38 37 38 37 38 35 35 33 33 35 35 36 37 38 39 39 40 41 42 42 43 43 42 43 44 44 45 45 45 45 45 46 46 47 47 47 46 45 46 45 45 42 42 40 39 38 37 38 38 36 38 38 39 39 38 39 38 38 38 38 39 38 39
39 39 39 40 40 41 41 42 40 39 39 38 37 38 39 35 34 34 34 35 35 35 36 37 37 38 39 40 41 42 42 41 41 41 41 41 41 42 42 42 43 44 46 46 47 47 47 47 46 45 44 44 44 43 43 42 41 42 39 38 36 38 37 37 35 36 38 38 38 38 38 39 39 39
41 41 41 41 39 39 38 38 38 37 36 35 35 33 35 35 35 35 36 36 36 36 36 36 37 39 40 41 39 38 37 39 40 41 41 40 40 40 41 40 39 40 43 45 46 47 47 46 46 45 43 43 44 43 44 43 42 42 40 39 36 35 36 36 37 38 38 38 38 38 38 39 39 39
40 40 39 39 40 38 37 36 34 34 34 34 34 34 36 35 35 38 38 39 36 35 36 36 37 37 37 37 38 38 38 38 39 40 40 39 39 40 39 37 36 37 39 41 43 45 43 45 44 44 43 42 40 42 43 42 40 40 40 40 39 40 39 38 38 37 38 38 37 37 37 38 38 39
38 38 37 34 33 31 32 32 33 33 32 33 34 35 36 35 35 34 32 34 34 35 34 34 34 35 36 36 37 37 37 37 37 37 37 38 38 39 38 36 36 36 36 37 39 41 43 44 45 45 45 44 44 43 40 37 39 40 39 39 39 38 38 38 38 37 37 37 35 35 36 38 38 39
33 32 32 30 30 32 31 31 31 31 31 32 32 34 35 35 34 34 34 34 34 35 34 34 34 34 35 35 36 36 36 37 37 37 36 36 37 35 35 34 35 37 37 37 38 39 41 41 42 42 42 42 43 44 43 39 38 39 39 39 39 38 38 38 38 38 37 36 35 34 34 35 37 38
31 30 29 29 30 29 31 30 31 31 31 31 32 34 34 35 35 34 34 35 34 34 34 34 34 35 35 35 35 34 35 35 36 36 36 36 36 35 35 34 34 35 36 36 37 38 38 37 38 38 38 38 38 40 44 44 39 38 39 39 40 39 37 37 37 37 37 35 36 34 33 34 35 37
30 29 30 30 30 30 30 31 31 32 31 31 32 33 34 35 35 34 34 36 36 35 35 35 35 35 35 35 35 34 34 34 34 34 34 34 34 34 35 34 34 35 36 36 37 38 38 37 36 35 34 34 33 33 36 42 43 41 38 37 38 38 37 37 37 37 36 35 35 34 33 33 34 35
29 29 30 30 30 30 30 31 30 31 32 33 34 34 35 34 35 35 35 36 36 35 35 35 35 35 35 35 34 34 34 34 33 34 33 34 34 34 33 33 34 35 35 36 37 37 38 36 36 35 33 33 32 32 34 36 38 43 42 38 37 38 37 36 36 35 35 36 34 34 34 34 33 34
29 30 30 31 31 31 31 31 33 32 33 34 34 34 33 33 34 34 35 34 34 34 34 34 34 34 34 34 34 34 34 34 34 33 33 33 33 33 33 33 33 34 34 35 36 36 37 36 35 35 34 32 32 33 33 35 36 37 41 41 37 36 36 35 34 34 34 35 34 34 35 34 33 34
30 31 30 32 32 31 31 33 33 34 35 35 34 34 34 34 34 33 33 33 34 34 34 34 34 34 34 33 34 33 33 33 32 33 33 33 33 33 33 33 33 34 34 33 35 35 36 35 35 35 35 34 33 34 36 35 34 36 36 40 40 36 36 36 35 35 34 33 33 33 33 34 34 35
31 31 32 32 32 32 34 35 34 35 35 35 35 35 34 34 34 34 34 34 34 34 33 33 33 34 33 34 33 33 33 32 32 33 33 33 33 33 33 33 33 33 33 33 33 34 34 35 35 36 36 36 38 39 37 36 36 34 34 35 39 39 37 37 35 34 33 33 33 32 31 33 32 32
30 30 32 33 33 34 34 34 35 35 35 35 35 35 34 34 33 33 33 34 33 33 33 33 33 33 33 33 33 33 32 32 33 33 33 33 33 33 33 33 33 33 32 32 33 33 33 35 36 37 38 38 38 37 35 34 34 34 33 34 36 39 39 39 37 36 34 33 34 33 32 31 31 32
30 30 31 32 34 36 35 35 36 35 34 34 34 34 34 34 33 34 34 34 33 33 33 33 33 33 33 33 33 33 32 32 32 33 33 33 33 33 33 33 32 33 32 32 33 34 35 36 37 36 36 36 35 34 33 34 34 33 33 33 34 37 38 38 39 38 36 35 34 32 32 32 33 31
31 31 32 33 34 34 35 35 35 34 34 34 34 34 33 33 33 33 33 33 33 33 33 33 34 33 33 33 33 33 32 32 32 32 33 33 33 32 32 33 33 33 33 34 35 35 35 35 36 35 35 35 35 35 33 34 34 33 32 32 33 34 35 37 37 37 38 37 37 36 35 34 32 28
30 31 32 33 34 35 34 34 34 34 34 34 34 33 33 33 33 33 33 33 33 33 33 33 33 33 33 33 33 33 33 33 33 32 32 33 33 33 33 33 33 33 33 33 33 34 35 35 35 35 35 34 35 34 34 34 33 33 33 32 32 33 32 33 34 35 35 36 36 36 36 36 35 36
30 31 33 33 34 34 34 34 32 32 32 32 32 32 33 33 33 33 33 33 33 33 33 33 33 33 33 33 33 32 33 33 33 33 33 33 33 33 33 33 33 33 33 33 33 33 34 34 34 35 35 35 35 35 35 35 33 32 32 32 32 32 32 33 33 32 32 32 34 35 35 36 36 36
MSLP
1020.46 1020.46 1020.54 1020.62 1020.62 1020.58 1020.66 1020.70 1020.74 1020.74 1020.74 1020.78 1020.82 1020.86 1021.06 1021.22 1021.34 1021.38 1021.14 1020.82 1020.54 1019.82 1019.86 1019.86 1019.26 1019.14 1019.06 1018.98 1018.82 1018.70 1018.58 1018.46 1018.38 1018.26 1018.18 1018.10 1018.02 1017.98 1017.94 1017.94 1017.90 1017.78 1017.70 1017.78 1017.82 1017.94 1018.02 1018.06 1018.10 1018.14 1018.14 1018.14 1018.14 1018.14 1018.26 1018.38 1018.38 1018.46 1018.58 1018.66 1018.66 1018.94 1019.10 1019.26 1019.42 1019.50 1019.58 1019.62 1019.70 1019.82 1019.90 1020.02 1020.26 1020.66
1020.62 1020.62 1020.62 1020.70 1020.66 1020.62 1020.66 1020.70 1020.70 1020.74 1020.74 1020.78 1020.78 1020.78 1020.82 1020.90 1021.22 1021.42 1021.50 1021.30 1020.66 1020.30 1020.02 1019.94 1019.94 1019.46 1019.38 1019.14 1018.98 1018.82 1018.70 1018.50 1018.34 1018.26 1018.14 1018.02 1017.90 1017.82 1017.70 1017.66 1017.62 1017.58 1017.58 1017.58 1017.66 1017.74 1017.78 1017.78 1017.82 1017.86 1017.90 1017.90 1017.90 1017.94 1018.02 1018.18 1018.26 1018.30 1018.30 1018.38 1018.46 1018.66 1018.70 1018.70 1018.86 1018.94 1019.02 1019.34 1019.38 1019.42 1019.50 1019.54 1019.90 1020.26
1020.62 1020.70 1020.70 1020.78 1020.82 1020.78 1020.78 1020.78 1020.74 1020.74 1020.70 1020.70 1020.70 1020.74 1020.74 1020.78 1020.90 1021.02 1021.22 1021.46 1020.66 1020.46 1020.34 1020.02 1019.94 1019.86 1019.62 1019.42 1019.26 1019.02 1018.82 1018.66 1018.54 1018.38 1018.26 1018.02 1017.86 1017.70 1017.54 1017.42 1017.38 1017.38 1017.46 1017.58 1017.66 1017.62 1017.58 1017.58 1017.58 1017.66 1017.70 1017.74 1017.78 1017.82 1017.82 1017.90 1018.02 1018.14 1018.22 1018.26 1018.22 1018.26 1018.38 1018.46 1018.62 1018.66 1018.82 1018.82 1019.06 1019.10 1019.18 1019.30 1019.38 1019.62
1020.70 1020.74 1020.78 1020.82 1020.82 1020.78 1020.78 1020.78 1020.82 1020.78 1020.74 1020.62 1020.62 1020.70 1020.70 1020.74 1020.82 1020.86 1021.06 1021.22 1020.98 1020.46 1020.42 1020.18 1019.86 1019.70 1019.58 1019.34 1019.30 1019.18 1019.06 1018.78 1018.58 1018.42 1018.22 1018.02 1017.82 1017.66 1017.58 1017.46 1017.42 1017.38 1017.34 1017.34 1017.42 1017.46 1017.50 1017.50 1017.46 1017.46 1017.50 1017.54 1017.54 1017.58 1017.66 1017.74 1017.78 1017.86 1017.98 1018.10 1018.14 1018.14 1018.14 1018.18 1018.30 1018.38 1018.50 1018.74 1018.78 1018.70 1018.78 1018.98 1019.34 1019.46
1020.66 1020.78 1020.86 1020.90 1020.86 1020.82 1020.90 1020.94 1020.90 1020.90 1020.82 1020.78 1020.70 1020.74 1020.74 1020.78 1020.74 1020.82 1020.98 1021.10 1020.94 1020.62 1020.30 1020.18 1020.02 1019.74 1019.62 1019.46 1019.30 1019.22 1019.10 1018.94 1018.66 1018.46 1018.26 1018.06 1017.90 1017.74 1017.58 1017.46 1017.30 1017.22 1017.18 1017.18 1017.18 1017.18 1017.14 1017.14 1017.18 1017.22 1017.26 1017.30 1017.30 1017.34 1017.38 1017.46 1017.54 1017.62 1017.70 1017.74 1017.82 1017.90 1017.94 1017.98 1018.06 1018.18 1018.18 1018.34 1018.46 1018.70 1018.70 1018.98 1019.10 1019.14
1020.58 1020.74 1020.86 1020.98 1021.06 1020.98 1021.06 1021.06 1021.02 1020.98 1020.94 1020.90 1020.86 1020.78 1020.74 1020.74 1020.74 1020.78 1020.86 1020.74 1020.74 1020.62 1020.46 1020.26 1020.10 1019.98 1019.78 1019.82 1019.42 1019.38 1019.18 1018.94 1018.74 1018.58 1018.30 1018.06 1017.86 1017.70 1017.54 1017.46 1017.30 1017.18 1017.10 1017.06 1017.02 1017.06 1017.02 1016.98 1016.94 1016.90 1016.90 1016.94 1016.94 1016.94 1017.02 1017.14 1017.22 1017.30 1017.38 1017.46 1017.54 1017.62 1017.74 1017.82 1017.90 1017.94 1018.02 1018.10 1018.14 1018.22 1018.38 1018.50 1018.62 1018.74
1020.54 1020.62 1020.74 1020.86 1020.94 1020.94 1021.02 1021.10 1021.14 1021.10 1021.02 1020.94 1020.98 1020.98 1021.02 1021.02 1020.98 1020.90 1020.86 1020.90 1020.94 1020.86 1020.74 1020.46 1020.30 1020.10 1019.94 1019.94 1019.66 1019.50 1019.30 1019.10 1018.94 1018.70 1018.42 1018.18 1017.90 1017.66 1017.54 1017.46 1017.30 1017.14 1017.02 1016.98 1016.94 1016.90 1016.82 1016.74 1016.70 1016.62 1016.58 1016.66 1016.82 1016.86 1016.86 1016.90 1016.94 1016.98 1017.06 1017.14 1017.26 1017.38 1017.54 1017.66 1017.78 1017.82 1017.86 1017.86 1017.90 1017.94 1017.98 1018.18 1018.38 1018.46
1020.46 1020.54 1020.66 1020.70 1020.86 1020.90 1020.98 1021.06 1021.10 1021.06 1021.06 1021.02 1020.98 1020.98 1020.98 1020.98 1021.02 1021.10 1021.06 1021.02 1021.02 1020.82 1020.90 1020.58 1020.50 1020.22 1020.14 1019.94 1019.74 1019.62 1019.42 1019.22 1018.98 1018.78 1018.50 1018.22 1018.02 1017.74 1017.46 1017.30 1017.22 1017.14 1017.06 1016.98 1016.90 1016.82 1016.70 1016.62 1016.54 1016.54 1016.50 1016.46 1016.42 1016.50 1016.54 1016.50 1016.58 1016.70 1016.78 1016.90 1017.02 1017.14 1017.26 1017.38 1017.50 1017.58 1017.62 1017.66 1017.66 1017.70 1017.82 1017.90 1018.02 1018.10
1020.30 1020.46 1020.50 1020.58 1020.70 1020.86 1021.02 1021.14 1021.10 1021.14 1021.18 1021.18 1021.14 1021.14 1021.18 1021.14 1021.26 1021.22 1021.26 1021.22 1021.22 1021.22 1021.18 1020.94 1020.54 1020.42 1020.26 1020.02 1019.82 1019.66 1019.58 1019.30 1019.10 1018.82 1018.62 1018.42 1018.30 1018.10 1017.90 1017.70 1017.42 1017.22 1017.06 1016.90 1016.78 1016.66 1016.58 1016.46 1016.38 1016.34 1016.34 1016.34 1016.34 1016.26 1016.22 1016.26 1016.30 1016.38 1016.46 1016.58 1016.70 1016.82 1016.94 1017.02 1017.14 1017.22 1017.38 1017.46 1017.54 1017.58 1017.62 1017.70 1017.74 1017.86
1020.22 1020.34 1020.42 1020.50 1020.62 1020.78 1020.94 1021.06 1021.18 1021.26 1021.26 1021.26 1021.30 1021.34 1021.38 1021.46 1021.46 1021.46 1021.46 1021.58 1021.50 1021.54 1021.54 1021.46 1021.06 1020.70 1020.62 1020.34 1020.18 1019.86 1019.74 1019.62 1019.38 1019.10 1018.86 1018.62 1018.38 1018.30 1018.06 1017.78 1017.58 1017.34 1017.18 1017.02 1016.82 1016.66 1016.50 1016.34 1016.22 1016.14 1016.10 1016.14 1016.18 1016.22 1016.14 1016.10 1016.10 1016.18 1016.26 1016.34 1016.50 1016.62 1016.74 1016.82 1016.86 1016.94 1017.10 1017.22 1017.38 1017.46 1017.54 1017.58 1017.58 1017.58
1020.14 1020.30 1020.38 1020.46 1020.54 1020.70 1020.82 1020.98 1021.14 1021.30 1021.50 1021.54 1021.66 1021.74 1021.70 1021.74 1021.70 1021.78 1021.82 1021.82 1021.78 1021.82 1021.86 1021.58 1021.54 1021.50 1021.06 1020.98 1020.74 1020.26 1020.10 1019.86 1019.74 1019.70 1019.46 1019.26 1018.90 1018.70 1018.62 1018.26 1017.78 1017.50 1017.22 1016.94 1016.82 1016.86 1016.82 1016.70 1016.58 1016.38 1016.22 1016.14 1016.14 1016.14 1016.14 1016.10 1016.06 1016.02 1016.06 1016.14 1016.22 1016.30 1016.38 1016.54 1016.70 1016.82 1016.90 1017.02 1017.10 1017.18 1017.30 1017.38 1017.42 1017.42
1019.98 1020.10 1020.26 1020.42 1020.54 1020.66 1020.82 1021.02 1021.22 1021.34 1021.50 1021.66 1021.62 1021.86 1021.86 1021.90 1021.90 1021.98 1022.02 1022.02 1022.06 1022.06 1022.06 1022.10 1021.98 1021.82 1021.62 1021.30 1021.14 1020.82 1020.38 1020.18 1020.02 1020.10 1020.34 1020.18 1019.78 1019.46 1019.06 1018.70 1018.42 1017.78 1017.50 1017.46 1017.38 1017.14 1017.02 1016.90 1016.74 1016.54 1016.26 1016.06 1016.10 1016.14 1016.18 1016.10 1016.02 1016.02 1016.10 1016.14 1016.14 1016.18 1016.26 1016.38 1016.50 1016.66 1016.74 1016.78 1016.82 1016.94 1017.06 1017.14 1017.26 1017.30
1019.90 1020.06 1020.18 1020.30 1020.50 1020.62 1020.74 1020.94 1021.18 1021.34 1021.42 1021.50 1021.58 1021.78 1021.90 1021.98 1022.02 1022.06 1022.10 1022.18 1022.18 1022.18 1022.30 1022.26 1022.22 1022.10 1021.90 1021.70 1021.50 1021.22 1021.06 1021.22 1021.18 1020.78 1020.66 1020.46 1020.14 1019.82 1019.38 1018.90 1018.50 1018.34 1018.54 1018.34 1018.10 1017.74 1017.54 1017.26 1017.06 1016.86 1016.62 1016.34 1016.14 1015.98 1015.98 1015.86 1015.70 1015.62 1015.58 1015.70 1015.94 1016.02 1016.10 1016.22 1016.38 1016.46 1016.54 1016.62 1016.66 1016.74 1016.82 1016.94 1017.06 1017.18
1019.74 1019.90 1020.06 1020.26 1020.38 1020.62 1020.78 1020.98 1021.18 1021.30 1021.38 1021.50 1021.54 1021.70 1021.86 1021.90 1021.98 1022.02 1022.06 1022.14 1022.26 1022.34 1022.42 1022.46 1022.42 1022.34 1022.18 1022.02 1021.78 1021.58 1021.30 1021.18 1020.98 1020.90 1020.82 1020.70 1020.26 1019.98 1019.78 1019.38 1018.94 1018.82 1018.82 1018.78 1018.62 1018.18 1017.82 1017.74 1017.30 1017.02 1016.90 1016.54 1016.38 1016.22 1015.98 1015.82 1015.66 1015.46 1015.34 1015.42 1015.58 1015.70 1015.78 1015.82 1015.94 1016.10 1016.22 1016.26 1016.34 1016.42 1016.50 1016.58 1016.66 1016.78
1019.62 1019.74 1019.94 1020.18 1020.38 1020.58 1020.86 1021.06 1021.18 1021.26 1021.34 1021.34 1021.42 1021.62 1021.74 1021.82 1021.86 1021.98 1022.02 1022.06 1022.14 1022.34 1022.42 1022.46 1022.50 1022.46 1022.26 1022.06 1021.90 1021.70 1021.46 1021.18 1021.18 1021.06 1020.98 1020.90 1020.62 1020.62 1020.62 1020.14 1019.42 1019.26 1019.30 1019.26 1019.10 1018.30 1017.90 1017.86 1017.62 1017.22 1016.94 1016.66 1016.50 1016.34 1016.14 1015.90 1015.66 1015.46 1015.34 1015.30 1015.34 1015.50 1015.66 1015.82 1015.90 1016.02 1016.10 1016.14 1016.18 1016.26 1016.34 1016.38 1016.46 1016.50
1019.34 1019.54 1019.78 1020.10 1020.34 1020.50 1020.70 1020.90 1021.10 1021.14 1021.14 1021.18 1021.34 1021.54 1021.66 1021.82 1021.90 1021.94 1021.98 1021.94 1022.10 1022.22 1022.30 1022.42 1022.46 1022.50 1022.34 1022.14 1021.98 1021.74 1021.50 1021.30 1021.18 1021.02 1020.94 1020.86 1020.78 1020.70 1020.70 1020.62 1020.30 1019.58 1019.66 1019.70 1019.38 1018.58 1018.18 1018.10 1017.78 1017.26 1016.82 1016.54 1016.34 1016.26 1016.22 1016.06 1015.86 1015.58 1015.38 1015.26 1015.38 1015.50 1015.66 1015.78 1015.86 1016.02 1016.18 1016.26 1016.30 1016.30 1016.34 1016.34 1016.34 1016.38
1019.22 1019.42 1019.62 1019.98 1020.26 1020.30 1020.42 1020.62 1020.82 1020.94 1021.02 1021.18 1021.34 1021.46 1021.78 1021.98 1022.02 1022.02 1022.10 1022.14 1022.06 1022.10 1022.34 1022.42 1022.42 1022.42 1022.22 1022.10 1021.90 1021.66 1021.46 1021.38 1021.34 1021.10 1020.98 1020.82 1020.74 1020.74 1020.66 1020.30 1019.90 1019.50 1019.62 1019.66 1019.38 1018.54 1017.94 1018.18 1017.70 1017.34 1016.78 1016.50 1016.14 1015.98 1015.94 1015.90 1015.82 1015.66 1015.58 1015.58 1015.62 1015.66 1015.66 1015.66 1015.70 1015.86 1015.98 1016.06 1016.14 1016.18 1016.22 1016.22 1016.22 1016.22
1019.22 1019.42 1019.58 1019.82 1020.10 1020.30 1020.42 1020.58 1020.74 1020.86 1020.94 1021.06 1021.26 1021.58 1021.78 1021.86 1021.86 1021.94 1021.98 1021.94 1022.02 1022.22 1022.30 1022.30 1022.26 1022.02 1022.06 1021.98 1021.70 1021.50 1021.46 1021.42 1021.30 1021.18 1020.90 1020.82 1020.70 1020.62 1020.34 1019.98 1019.90 1019.58 1019.58 1019.62 1019.34 1018.46 1017.90 1017.90 1017.58 1017.22 1016.78 1016.46 1016.10 1015.94 1015.70 1015.74 1015.74 1015.62 1015.50 1015.46 1015.50 1015.58 1015.66 1015.74 1015.86 1015.98 1016.02 1016.06 1016.06 1016.10 1016.06 1016.06 1016.02 1015.98
1019.38 1019.58 1019.70 1019.86 1020.06 1020.22 1020.34 1020.62 1020.82 1020.94 1021.06 1021.18 1021.22 1021.30 1021.42 1021.54 1021.54 1021.62 1021.66 1021.66 1021.66 1021.74 1021.98 1022.06 1021.98 1021.86 1021.78 1021.70 1021.58 1021.50 1021.50 1021.50 1021.38 1021.26 1021.14 1021.02 1020.82 1020.50 1020.14 1020.02 1019.86 1019.62 1019.46 1019.30 1019.38 1018.82 1017.90 1017.86 1017.54 1016.98 1016.78 1016.38 1016.10 1015.86 1015.58 1015.46 1015.38 1015.30 1015.26 1015.26 1015.34 1015.46 1015.58 1015.70 1015.86 1015.94 1015.98 1016.02 1016.02 1015.98 1015.98 1015.94 1015.86 1015.82
1019.58 1019.58 1019.70 1019.82 1019.94 1020.10 1020.26 1020.50 1020.58 1020.66 1020.74 1020.86 1021.02 1021.18 1021.22 1021.34 1021.46 1021.58 1021.54 1021.42 1021.42 1021.42 1021.46 1021.62 1021.74 1021.82 1021.86 1021.82 1021.78 1021.70 1021.58 1021.46 1021.30 1021.18 1021.02 1020.94 1020.70 1020.46 1020.22 1019.94 1019.62 1019.66 1019.26 1019.18 1019.22 1018.82 1018.14 1017.86 1017.50 1016.70 1016.58 1016.42 1016.22 1015.94 1015.66 1015.42 1015.30 1015.30 1015.30 1015.30 1015.38 1015.50 1015.62 1015.74 1015.82 1015.86 1015.90 1015.90 1015.86 1015.82 1015.74 1015.66 1015.58 1015.54
1019.50 1019.62 1019.70 1019.82 1019.86 1019.90 1020.22 1020.74 1020.98 1021.06 1020.90 1020.94 1021.10 1021.26 1021.42 1021.54 1021.58 1021.54 1021.62 1021.62 1021.58 1021.70 1021.78 1021.78 1021.82 1021.82 1021.78 1021.74 1021.66 1021.58 1021.46 1021.30 1021.22 1021.10 1020.98 1020.86 1020.66 1020.58 1020.34 1019.74 1019.70 1019.34 1019.22 1018.98 1018.94 1018.82 1018.26 1017.78 1017.38 1016.82 1016.66 1016.42 1016.14 1015.90 1015.62 1015.58 1015.70 1015.66 1015.62 1015.62 1015.62 1015.66 1015.74 1015.74 1015.82 1015.86 1015.86 1015.86 1015.78 1015.70 1015.62 1015.50 1015.42 1015.30
1019.42 1019.42 1019.62 1019.82 1020.06 1020.50 1021.02 1021.18 1021.18 1021.26 1021.22 1021.38 1021.62 1021.74 1021.86 1021.86 1021.90 1021.90 1021.90 1021.82 1021.74 1021.70 1021.70 1021.66 1021.62 1021.58 1021.50 1021.42 1021.26 1021.14 1021.06 1021.02 1020.98 1021.02 1020.86 1020.58 1020.70 1020.50 1020.42 1019.98 1019.62 1019.26 1019.10 1018.90 1018.66 1018.54 1018.10 1017.70 1017.38 1016.98 1016.42 1016.22 1015.90 1015.74 1015.70 1015.78 1015.94 1016.02 1016.10 1016.10 1016.02 1015.98 1015.98 1016.02 1016.06 1016.06 1016.02 1015.98 1015.86 1015.74 1015.58 1015.42 1015.34 1015.30
1019.50 1020.18 1020.46 1020.38 1020.54 1020.90 1021.26 1021.34 1021.46 1021.58 1021.66 1021.86 1022.02 1022.14 1022.10 1022.10 1022.14 1022.02 1021.98 1021.90 1021.82 1021.78 1021.74 1021.70 1021.66 1021.58 1021.50 1021.38 1021.26 1021.02 1020.86 1020.70 1020.66 1020.62 1020.42 1020.38 1020.50 1020.22 1020.02 1019.90 1019.62 1019.30 1018.70 1018.42 1018.26 1018.38 1017.78 1017.62 1017.22 1017.18 1016.90 1016.62 1016.10 1015.74 1015.82 1015.86 1016.14 1016.22 1016.14 1016.14 1016.14 1016.10 1016.06 1016.10 1016.10 1016.10 1016.06 1015.98 1015.86 1015.74 1015.58 1015.38 1015.34 1015.22
1020.26 1020.78 1021.18 1021.26 1021.22 1021.30 1021.42 1021.54 1021.66 1021.82 1021.90 1021.98 1022.14 1022.22 1022.22 1022.26 1022.14 1021.98 1021.98 1021.90 1021.82 1021.78 1021.74 1021.66 1021.66 1021.54 1021.42 1021.26 1021.10 1020.90 1020.74 1020.54 1020.34 1020.22 1020.10 1020.02 1019.98 1019.90 1019.66 1019.50 1019.38 1019.06 1018.42 1018.10 1017.98 1018.02 1017.54 1017.58 1017.46 1017.38 1017.50 1017.50 1016.86 1015.98 1015.86 1015.90 1016.06 1016.14 1016.18 1016.14 1016.06 1016.02 1016.06 1016.02 1016.02 1015.94 1015.86 1015.74 1015.66 1015.58 1015.46 1015.34 1015.22 1015.14
1020.38 1021.10 1021.46 1021.62 1021.54 1021.46 1021.54 1021.62 1021.74 1021.82 1021.90 1022.02 1022.10 1022.14 1022.10 1022.06 1021.86 1021.82 1021.90 1021.78 1021.74 1021.70 1021.66 1021.54 1021.46 1021.34 1021.18 1020.98 1020.78 1020.62 1020.46 1020.30 1020.10 1019.94 1019.82 1019.70 1019.62 1019.54 1019.38 1019.14 1018.86 1018.50 1018.02 1017.86 1017.74 1017.70 1017.46 1017.30 1017.34 1017.22 1017.14 1017.14 1016.78 1016.62 1016.14 1016.10 1015.82 1015.78 1015.90 1015.98 1015.82 1015.94 1015.94 1015.86 1015.78 1015.70 1015.66 1015.62 1015.54 1015.38 1015.22 1015.10 1015.02 1015.02
1020.70 1021.14 1021.50 1021.62 1021.70 1021.58 1021.54 1021.58 1021.66 1021.70 1021.78 1021.86 1021.94 1021.86 1021.82 1021.74 1021.70 1021.66 1021.70 1021.74 1021.74 1021.70 1021.62 1021.46 1021.30 1021.06 1020.86 1020.62 1020.38 1020.18 1020.06 1019.90 1019.78 1019.66 1019.50 1019.34 1019.22 1019.10 1018.98 1018.82 1018.62 1018.34 1017.98 1017.66 1017.54 1017.38 1017.26 1017.06 1017.10 1017.10 1017.02 1016.98 1016.58 1016.62 1016.50 1016.14 1015.90 1015.70 1015.86 1015.94 1015.78 1015.70 1015.78 1015.74 1015.74 1015.78 1015.82 1015.74 1015.54 1015.42 1015.30 1015.22 1015.18 1015.10
1020.66 1021.06 1021.34 1021.38 1021.38 1021.34 1021.34 1021.46 1021.58 1021.62 1021.66 1021.70 1021.62 1021.58 1021.54 1021.50 1021.46 1021.58 1021.74 1021.74 1021.74 1021.62 1021.42 1021.26 1021.06 1020.74 1020.46 1020.26 1020.02 1019.86 1019.70 1019.50 1019.38 1019.22 1019.10 1018.98 1018.82 1018.66 1018.50 1018.30 1018.14 1017.98 1017.74 1017.70 1017.54 1017.34 1017.14 1016.86 1016.74 1016.86 1016.78 1016.70 1016.62 1016.42 1016.50 1016.46 1015.94 1015.70 1015.70 1015.86 1015.90 1015.90 1015.82 1015.82 1015.94 1015.98 1015.86 1015.74 1015.70 1015.58 1015.46 1015.46 1015.46 1015.38
1020.78 1021.02 1021.18 1021.26 1021.30 1021.30 1021.26 1021.26 1021.34 1021.34 1021.34 1021.30 1021.34 1021.42 1021.50 1021.46 1021.62 1021.74 1021.70 1021.66 1021.54 1021.38 1021.18 1020.98 1020.70 1020.34 1020.02 1019.78 1019.62 1019.46 1019.22 1019.02 1018.90 1018.78 1018.66 1018.54 1018.38 1018.26 1018.06 1017.90 1017.70 1017.50 1017.34 1017.30 1017.22 1017.14 1016.98 1016.78 1016.58 1016.46 1016.50 1016.46 1016.46 1016.42 1016.34 1015.98 1016.02 1015.78 1015.62 1015.94 1016.06 1016.06 1016.02 1016.02 1016.10 1016.06 1015.98 1015.86 1015.82 1015.70 1015.66 1015.62 1015.58 1015.54
1020.90 1020.98 1021.02 1021.06 1020.98 1020.82 1020.78 1020.90 1021.06 1021.14 1021.10 1021.14 1021.22 1021.26 1021.26 1021.34 1021.46 1021.42 1021.42 1021.30 1021.14 1021.02 1020.78 1020.50 1020.18 1019.94 1019.74 1019.50 1019.18 1018.98 1018.78 1018.66 1018.54 1018.42 1018.26 1018.14 1017.98 1017.82 1017.66 1017.46 1017.34 1017.22 1017.10 1016.90 1016.82 1016.70 1016.58 1016.46 1016.30 1016.22 1016.14 1016.06 1016.10 1015.90 1016.06 1015.98 1015.86 1015.70 1015.62 1015.62 1015.82 1016.06 1016.10 1016.06 1016.02 1015.98 1015.94 1015.90 1015.90 1015.86 1015.86 1015.82 1015.78 1015.70
1020.70 1020.74 1020.82 1020.82 1020.82 1020.86 1020.90 1021.06 1021.10 1021.18 1021.18 1021.26 1021.30 1021.22 1021.18 1021.22 1021.18 1021.14 1021.02 1020.90 1020.78 1020.62 1020.38 1020.22 1020.02 1019.74 1019.46 1019.22 1018.98 1018.82 1018.66 1018.58 1018.46 1018.26 1018.06 1017.90 1017.70 1017.58 1017.42 1017.22 1016.98 1016.82 1016.66 1016.50 1016.38 1016.26 1016.18 1016.02 1015.94 1015.94 1015.90 1015.74 1015.70 1015.66 1015.62 1015.66 1015.58 1015.50 1015.46 1015.54 1015.54 1015.82 1015.86 1015.82 1015.82 1015.78 1015.82 1015.86 1015.90 1015.86 1015.78 1015.78 1015.74 1015.66
1020.94 1021.02 1021.06 1021.14 1021.18 1021.18 1021.18 1021.18 1021.22 1021.26 1021.26 1021.18 1021.14 1021.18 1021.22 1021.14 1021.02 1020.86 1020.78 1020.70 1020.62 1020.42 1020.26 1020.06 1019.82 1019.54 1019.30 1019.06 1018.94 1018.78 1018.66 1018.50 1018.30 1018.14 1017.94 1017.74 1017.46 1017.34 1017.10 1016.98 1016.70 1016.62 1016.38 1016.22 1016.02 1015.86 1015.74 1015.66 1015.62 1015.62 1015.70 1015.50 1015.42 1015.38 1015.26 1015.30 1015.34 1015.38 1015.34 1015.26 1015.50 1015.54 1015.46 1015.78 1015.74 1015.70 1015.66 1015.70 1015.78 1015.78 1015.70 1015.66 1015.66 1015.62
1021.26 1021.30 1021.38 1021.30 1021.26 1021.18 1021.22 1021.26 1021.22 1021.22 1021.22 1021.26 1021.26 1021.18 1021.10 1020.98 1020.94 1020.86 1020.70 1020.54 1020.46 1020.34 1020.18 1019.98 1019.74 1019.50 1019.30 1019.10 1018.86 1018.66 1018.54 1018.38 1018.14 1018.02 1017.86 1017.66 1017.34 1017.14 1016.94 1016.82 1016.58 1016.42 1016.22 1016.02 1015.78 1015.58 1015.50 1015.38 1015.34 1015.30 1015.30 1015.34 1015.46 1015.30 1015.26 1015.26 1015.34 1015.34 1015.34 1015.18 1015.14 1015.18 1015.38 1015.50 1015.58 1015.70 1015.66 1015.70 1015.78 1015.74 1015.70 1015.74 1015.74 1015.70
1021.30 1021.14 1021.02 1021.14 1021.34 1021.42 1021.38 1021.34 1021.34 1021.38 1021.34 1021.30 1021.30 1021.26 1021.10 1021.02 1020.90 1020.78 1020.66 1020.58 1020.42 1020.22 1020.10 1019.90 1019.66 1019.42 1019.18 1018.90 1018.70 1018.50 1018.30 1018.10 1017.94 1017.82 1017.74 1017.46 1017.30 1016.90 1016.82 1016.58 1016.34 1016.22 1016.02 1015.82 1015.66 1015.38 1015.22 1015.02 1014.98 1014.94 1014.90 1014.90 1014.94 1015.02 1015.18 1015.26 1015.10 1015.10 1015.18 1015.06 1015.06 1015.06 1015.22 1015.42 1015.54 1015.62 1015.74 1015.82 1015.82 1015.78 1015.82 1015.82 1015.78 1015.74
1021.06 1021.34 1021.38 1021.54 1021.62 1021.50 1021.50 1021.50 1021.58 1021.58 1021.58 1021.50 1021.38 1021.26 1021.10 1020.94 1020.86 1020.74 1020.62 1020.50 1020.30 1020.14 1019.98 1019.74 1019.54 1019.26 1018.98 1018.70 1018.46 1018.26 1018.06 1017.74 1017.62 1017.46 1017.42 1017.22 1017.06 1016.94 1016.70 1016.46 1016.14 1015.90 1015.74 1015.54 1015.34 1015.18 1015.02 1014.90 1014.86 1014.78 1014.74 1014.66 1014.58 1014.58 1014.66 1014.82 1014.70 1014.70 1014.78 1014.86 1014.86 1014.90 1014.90 1015.10 1015.30 1015.38 1015.46 1015.46 1015.58 1015.82 1015.90 1015.90 1015.86 1015.82
1021.42 1021.54 1021.66 1021.66 1021.62 1021.74 1021.74 1021.74 1021.70 1021.70 1021.62 1021.54 1021.50 1021.34 1021.18 1021.02 1020.86 1020.70 1020.58 1020.34 1020.14 1019.94 1019.74 1019.50 1019.26 1018.98 1018.70 1018.42 1018.18 1017.98 1017.74 1017.54 1017.30 1017.14 1016.98 1016.86 1016.70 1016.54 1016.30 1016.14 1015.82 1015.58 1015.38 1015.22 1015.10 1014.94 1014.90 1014.86 1014.86 1014.82 1014.78 1014.70 1014.62 1014.18 1014.10 1014.14 1014.38 1014.30 1014.42 1014.46 1014.46 1014.42 1014.66 1014.90 1015.02 1015.22 1015.30 1015.42 1015.46 1015.66 1015.90 1015.94 1015.98 1015.90
1021.50 1021.78 1021.82 1021.78 1021.86 1021.86 1021.86 1021.78 1021.74 1021.66 1021.70 1021.62 1021.54 1021.38 1021.22 1020.98 1020.74 1020.62 1020.42 1020.14 1019.98 1019.74 1019.50 1019.22 1018.90 1018.62 1018.30 1018.06 1017.78 1017.58 1017.34 1017.18 1017.02 1016.86 1016.66 1016.50 1016.34 1016.10 1015.90 1015.66 1015.42 1015.18 1015.02 1014.90 1014.74 1014.54 1014.58 1014.58 1014.66 1014.82 1014.82 1014.66 1014.62 1014.30 1013.74 1013.34 1013.58 1013.78 1014.06 1014.02 1013.98 1014.02 1014.26 1014.54 1014.74 1014.86 1015.06 1015.26 1015.34 1015.42 1015.66 1015.86 1015.98 1016.06
1021.70 1021.94 1021.82 1021.82 1021.86 1021.86 1021.82 1021.82 1021.78 1021.78 1021.70 1021.58 1021.42 1021.30 1021.14 1020.94 1020.70 1020.50 1020.22 1020.02 1019.82 1019.54 1019.26 1018.94 1018.62 1018.30 1017.98 1017.70 1017.42 1017.14 1016.98 1016.86 1016.62 1016.38 1016.22 1016.02 1015.82 1015.66 1015.46 1015.18 1015.02 1014.82 1014.70 1014.46 1014.34 1014.22 1014.22 1014.26 1014.26 1014.46 1014.46 1014.30 1014.14 1013.86 1013.34 1013.10 1013.06 1013.06 1013.22 1013.46 1013.58 1013.66 1013.94 1014.30 1014.54 1014.78 1014.82 1014.98 1015.26 1015.30 1015.38 1015.66 1015.98 1016.14
1021.90 1021.98 1021.82 1021.82 1021.82 1021.82 1021.82 1021.78 1021.70 1021.66 1021.58 1021.46 1021.38 1021.26 1021.10 1020.90 1020.62 1020.34 1020.10 1019.90 1019.62 1019.26 1018.94 1018.66 1018.26 1017.94 1017.66 1017.38 1017.14 1016.82 1016.58 1016.34 1016.18 1015.98 1015.74 1015.58 1015.42 1015.22 1015.02 1014.78 1014.54 1014.42 1014.26 1014.06 1013.94 1013.86 1013.82 1013.90 1013.98 1014.02 1014.06 1013.86 1013.70 1013.46 1013.22 1012.78 1012.82 1012.78 1012.82 1012.98 1013.22 1013.46 1013.70 1014.02 1014.30 1014.46 1014.74 1015.02 1015.18 1015.34 1015.46 1015.78 1016.02 1016.18
1021.94 1021.94 1021.82 1021.82 1021.86 1021.82 1021.78 1021.70 1021.74 1021.74 1021.66 1021.50 1021.38 1021.22 1020.98 1020.70 1020.46 1020.18 1019.94 1019.62 1019.26 1018.94 1018.58 1018.30 1017.94 1017.62 1017.34 1017.06 1016.78 1016.54 1016.26 1015.98 1015.74 1015.46 1015.22 1015.02 1014.90 1014.70 1014.50 1014.30 1014.14 1013.94 1013.90 1013.74 1013.58 1013.46 1013.42 1013.54 1013.54 1013.54 1013.50 1013.46 1013.26 1012.94 1012.78 1012.90 1012.86 1012.46 1012.54 1012.62 1012.70 1013.22 1013.62 1013.62 1013.90 1014.30 1014.70 1015.10 1015.50 1015.74 1015.98 1016.10 1016.22 1016.42
1021.82 1021.70 1021.78 1021.70 1021.70 1021.70 1021.74 1021.78 1021.78 1021.74 1021.66 1021.54 1021.30 1021.10 1020.90 1020.62 1020.30 1019.98 1019.66 1019.30 1018.98 1018.62 1018.34 1017.98 1017.58 1017.26 1016.94 1016.62 1016.34 1016.06 1015.82 1015.54 1015.26 1014.98 1014.74 1014.54 1014.34 1014.18 1014.02 1013.86 1013.74 1013.58 1013.50 1013.34 1013.22 1013.02 1013.10 1013.02 1012.98 1012.90 1012.90 1012.78 1012.58 1012.50 1012.54 1012.62 1012.62 1012.70 1012.58 1012.46 1012.50 1012.54 1012.90 1013.38 1013.70 1014.22 1014.82 1015.10 1015.30 1015.66 1016.10 1016.22 1016.58 1016.94
1021.70 1021.70 1021.70 1021.66 1021.70 1021.78 1021.82 1021.82 1021.78 1021.70 1021.54 1021.38 1021.26 1021.02 1020.78 1020.46 1020.18 1019.82 1019.46 1019.10 1018.78 1018.42 1018.02 1017.58 1017.22 1016.90 1016.54 1016.18 1015.94 1015.70 1015.38 1015.02 1014.78 1014.50 1014.30 1014.06 1013.86 1013.66 1013.50 1013.42 1013.30 1013.14 1013.14 1012.86 1012.74 1012.66 1012.54 1012.42 1012.42 1012.42 1012.42 1012.34 1012.30 1012.50 1012.66 1012.70 1012.66 1012.42 1012.54 1012.70 1012.54 1012.50 1012.54 1012.58 1013.14 1013.74 1014.34 1014.90 1015.10 1015.42 1015.86 1016.22 1016.62 1016.94
1021.62 1021.66 1021.66 1021.70 1021.86 1021.86 1021.86 1021.82 1021.74 1021.62 1021.54 1021.38 1021.14 1020.90 1020.58 1020.30 1019.94 1019.54 1019.14 1018.70 1018.38 1018.02 1017.66 1017.22 1016.82 1016.46 1016.14 1015.82 1015.50 1015.26 1015.02 1014.70 1014.38 1014.06 1013.82 1013.62 1013.38 1013.14 1013.02 1012.98 1012.86 1012.66 1012.66 1012.46 1012.26 1012.02 1011.86 1011.94 1012.02 1012.06 1012.10 1012.22 1012.38 1012.54 1012.42 1012.38 1012.38 1012.50 1012.94 1013.02 1012.98 1012.74 1012.82 1013.14 1013.22 1013.18 1013.70 1014.26 1014.66 1015.34 1016.06 1016.62 1016.70 1017.02
1021.54 1021.54 1021.66 1021.86 1021.90 1021.86 1021.86 1021.86 1021.78 1021.66 1021.42 1021.22 1020.94 1020.70 1020.46 1020.06 1019.66 1019.22 1018.82 1018.42 1018.06 1017.70 1017.30 1016.86 1016.46 1016.14 1015.74 1015.42 1015.10 1014.86 1014.62 1014.30 1013.98 1013.70 1013.42 1013.22 1013.02 1012.82 1012.62 1012.42 1012.34 1012.18 1012.14 1011.98 1011.78 1011.74 1011.78 1011.82 1011.82 1011.82 1011.90 1012.06 1012.10 1012.14 1012.18 1012.06 1012.10 1012.50 1012.98 1013.14 1013.22 1013.26 1013.38 1013.46 1013.70 1014.02 1014.26 1014.46 1014.50 1014.58 1014.62 1014.90 1015.54 1016.50
1021.50 1021.58 1021.82 1021.90 1021.86 1021.86 1021.90 1021.82 1021.70 1021.54 1021.30 1021.06 1020.78 1020.50 1020.26 1019.90 1019.46 1018.98 1018.62 1018.22 1017.82 1017.42 1016.98 1016.58 1016.18 1015.78 1015.42 1015.02 1014.74 1014.46 1014.18 1013.90 1013.58 1013.34 1013.06 1012.78 1012.54 1012.38 1012.18 1011.98 1011.90 1011.82 1011.78 1011.74 1011.66 1011.58 1011.54 1011.62 1011.62 1011.70 1011.86 1011.90 1011.82 1011.94 1011.90 1011.94 1012.18 1012.54 1012.90 1013.22 1013.42 1013.54 1013.82 1014.06 1014.34 1014.54 1014.66 1014.82 1014.90 1014.94 1015.02 1015.22 1015.26 1015.14
1021.54 1021.74 1021.82 1021.86 1021.90 1021.90 1021.86 1021.74 1021.62 1021.42 1021.18 1020.90 1020.62 1020.30 1019.98 1019.62 1019.22 1018.78 1018.38 1018.02 1017.62 1017.18 1016.74 1016.34 1015.90 1015.50 1015.14 1014.78 1014.50 1014.18 1013.74 1013.42 1013.22 1012.94 1012.70 1012.42 1012.18 1011.98 1011.78 1011.66 1011.58 1011.50 1011.46 1011.42 1011.46 1011.34 1011.38 1011.38 1011.34 1011.38 1011.46 1011.38 1011.46 1011.50 1011.50 1011.62 1012.14 1012.70 1013.02 1013.26 1013.58 1013.78 1013.98 1014.10 1014.38 1014.78 1015.10 1015.42 1015.42 1015.30 1015.42 1015.54 1015.62 1015.86
Wind_Speed
1 2 3 4 3 3 3 3 3 2 3 2 3 1 1 1 2 3 4 3 2 3 5 4 3 8 7 7 6 6 5 4 4 3 2 3 3 6 8 8 7 9 10 10 12 13 13 12 11 11 12 13 13 13 11 10 11 13 15 17 18 18 19 18 19 20 20 23 22 20 19 20 19 18
3 2 3 3 2 2 3 2 1 1 1 0 1 1 1 3 3 0 2 4 2 3 4 2 4 6 7 8 7 5 5 8 8 5 5 4 4 8 9 9 8 5 7 8 10 12 13 13 13 12 13 13 13 13 12 11 11 11 13 16 17 18 19 21 21 24 23 21 20 21 19 20 19 21
2 2 2 3 2 2 2 1 0 1 1 0 0 0 1 1 2 1 0 2 4 2 6 3 3 4 5 7 6 6 6 7 8 6 5 5 8 10 8 11 10 10 7 8 10 12 13 14 14 13 13 13 13 13 13 12 12 11 11 13 16 18 19 19 19 21 21 24 21 21 21 19 21 21
2 1 1 1 2 2 2 3 3 3 3 1 1 1 1 2 1 0 0 1 6 3 3 4 6 6 7 7 5 5 5 8 11 7 7 7 9 6 5 7 10 9 9 10 10 11 12 13 13 13 13 13 13 13 12 12 11 11 12 12 13 15 17 18 19 22 22 19 22 24 22 20 16 19
3 2 1 1 1 1 2 3 3 3 3 2 3 2 0 2 2 1 1 2 5 5 2 3 4 6 7 7 5 7 7 8 8 9 6 7 6 5 6 6 9 11 11 10 10 11 12 13 13 13 13 13 13 13 13 12 12 11 12 13 14 14 15 17 18 19 21 20 21 19 21 18 19 19
3 2 1 1 1 1 1 3 4 3 5 2 1 3 3 3 4 2 2 2 2 4 4 5 5 5 4 5 5 8 9 9 7 8 8 7 5 5 6 7 6 11 12 13 13 12 11 11 11 13 14 14 14 14 13 12 12 12 12 13 14 14 14 15 16 17 18 19 19 20 21 21 20 20
3 2 1 0 1 1 1 1 3 3 3 3 2 2 0 0 2 4 4 3 3 4 3 2 4 3 3 4 7 7 7 7 7 8 8 7 6 5 4 5 4 7 10 11 12 12 12 11 11 12 13 13 13 12 12 12 13 13 13 13 13 14 14 13 14 15 16 18 19 19 20 18 17 22
5 4 3 3 3 3 1 1 3 3 3 3 3 4 4 4 4 3 3 2 1 2 4 2 3 3 5 4 5 6 7 8 8 7 7 7 7 7 7 6 5 6 11 12 11 11 11 13 12 11 12 12 13 14 15 14 14 13 13 13 13 13 13 13 13 14 15 17 18 19 19 18 20 23
6 5 5 5 4 4 3 2 3 1 2 1 3 3 4 4 4 4 4 4 4 4 5 5 3 4 3 3 5 6 7 7 6 6 7 6 6 6 6 6 6 9 12 11 12 12 12 12 12 11 11 13 14 15 14 14 14 14 14 14 13 13 13 14 14 14 14 15 16 17 17 17 22 19
5 6 5 4 4 4 4 3 1 0 1 3 4 4 4 4 4 4 5 5 5 5 4 4 5 5 6 5 3 5 6 7 7 7 7 7 7 7 8 8 6 5 6 5 7 9 11 13 15 13 12 13 14 14 15 14 13 13 13 13 12 12 13 14 14 14 13 13 13 14 15 15 20 22
5 5 4 3 3 4 4 3 1 3 3 3 3 3 3 4 4 5 5 5 6 5 6 4 3 5 5 5 7 7 7 6 5 7 8 8 8 8 9 9 8 6 7 9 11 11 10 11 11 14 16 13 13 14 13 13 13 14 14 13 13 13 14 13 13 12 12 11 12 13 13 13 16 21
5 4 4 3 3 3 4 4 3 4 3 2 2 2 3 3 3 4 4 5 5 5 5 4 6 5 5 6 4 6 7 8 8 8 6 8 8 8 9 8 9 8 8 8 8 9 9 9 11 13 13 13 11 12 12 13 14 14 12 12 12 12 12 11 11 10 10 11 11 12 12 12 12 16
4 4 4 3 4 4 7 9 7 6 4 2 0 1 1 1 2 2 3 2 4 4 4 6 5 6 8 7 7 7 5 5 6 6 5 6 7 8 8 9 8 6 8 8 9 8 8 9 8 7 8 9 12 8 10 11 14 15 16 14 12 11 11 10 10 10 11 11 11 11 11 11 11 12
5 5 4 4 8 9 9 9 9 8 7 5 3 2 2 1 1 1 0 1 1 2 4 5 5 6 6 6 6 7 6 6 5 7 7 9 9 8 7 6 3 7 9 10 10 10 7 8 9 7 7 7 7 7 8 7 9 11 13 13 12 12 12 12 12 11 12 12 12 12 12 12 12 13
6 4 5 5 7 7 7 6 9 8 8 7 6 5 6 5 3 2 2 2 1 1 3 3 4 5 7 6 5 5 7 6 6 7 6 6 7 6 7 9 6 4 11 10 11 12 10 9 10 10 9 7 6 7 7 13 17 15 12 10 11 11 10 9 9 9 10 10 10 10 10 11 12 12
7 6 5 4 4 4 6 5 5 6 7 7 7 8 8 5 4 3 3 4 2 2 3 4 5 4 6 6 5 6 4 6 7 7 7 6 5 7 6 6 8 4 6 9 10 12 7 7 10 11 10 9 7 6 7 11 13 13 11 9 8 7 5 5 4 5 6 6 6 7 8 10 11 12
6 6 5 5 5 5 9 6 4 4 4 5 8 8 3 3 5 7 7 5 4 2 3 4 6 5 5 6 5 3 4 5 8 7 7 5 5 5 7 8 9 8 5 7 9 13 9 7 8 9 9 9 9 9 7 9 10 8 6 4 4 4 5 4 4 5 5 6 6 7 8 9 10 11
5 5 5 5 4 4 4 4 4 4 4 5 4 3 3 4 5 7 8 9 9 7 6 5 7 6 4 8 7 7 5 6 7 8 9 5 6 7 10 9 9 8 4 6 7 12 9 6 8 9 8 7 7 8 10 8 6 4 4 6 7 6 5 4 3 4 5 6 7 8 9 9 10 11
3 3 4 3 4 3 3 3 4 4 4 4 4 4 4 4 5 5 4 4 4 4 5 6 7 8 7 8 8 7 5 5 6 6 6 6 7 9 7 6 4 6 3 5 4 12 9 7 10 9 7 7 8 7 10 10 8 8 8 8 8 6 6 5 5 4 4 5 6 7 8 9 10 10
3 3 2 1 1 1 2 7 10 7 4 4 4 4 4 4 3 4 5 6 6 5 5 4 4 4 5 7 6 6 6 5 5 6 6 5 5 8 9 10 6 6 2 4 5 8 9 6 9 9 6 5 7 7 8 9 9 5 3 5 6 5 4 3 1 3 5 7 8 9 10 10 11 11
1 0 0 0 1 1 2 7 9 9 5 1 2 2 3 3 3 4 4 5 7 9 9 8 7 7 7 8 9 9 9 7 4 4 6 6 5 7 9 9 6 6 2 2 3 8 11 7 7 8 6 6 6 6 7 4 3 3 2 4 5 5 4 2 2 4 6 7 8 9 10 11 11 11
1 2 6 4 1 5 6 8 10 10 7 5 4 4 4 4 4 4 3 4 4 8 10 11 12 12 13 14 15 14 13 12 8 7 10 7 6 9 7 11 7 7 3 4 5 6 8 7 7 9 5 4 3 4 4 2 3 5 5 5 5 4 4 5 5 5 5 7 8 9 10 11 9 7
1 6 7 10 10 8 8 11 10 10 8 4 3 2 3 4 4 5 3 4 5 5 6 6 7 7 9 9 8 10 15 15 11 7 9 7 7 10 9 8 8 10 4 5 2 4 5 5 4 4 6 5 4 3 3 3 2 1 2 2 2 5 6 5 4 3 3 4 6 8 9 9 8 5
5 5 5 7 11 10 10 9 8 7 6 3 1 0 1 3 6 3 3 4 5 5 5 6 5 6 6 7 7 7 7 7 6 7 7 7 7 8 9 8 8 10 7 3 2 7 6 3 4 2 3 5 4 5 5 5 1 3 2 3 3 5 5 4 3 2 3 2 4 5 6 7 5 4
3 4 5 4 6 9 8 7 6 6 4 3 1 1 2 2 4 4 4 5 7 5 5 6 6 6 6 6 5 5 6 6 6 6 5 6 6 7 8 8 8 9 7 5 6 7 8 3 7 3 4 3 4 4 3 5 2 2 4 4 3 3 2 1 1 3 4 5 4 5 5 6 5 5
4 5 4 4 4 7 7 5 3 2 2 2 1 3 7 9 9 6 4 4 5 6 6 6 6 7 7 6 6 6 6 6 6 6 7 7 6 6 6 7 8 8 6 4 8 7 7 6 4 6 5 5 6 3 5 5 3 3 4 2 1 2 3 3 4 4 4 3 4 5 6 7 5 4
3 5 4 2 5 4 3 3 3 4 4 3 3 7 8 9 10 7 5 5 6 6 6 6 7 7 6 6 6 6 6 6 7 7 7 8 8 8 7 7 7 8 7 6 7 7 7 7 4 6 7 5 8 6 5 4 5 2 1 2 1 2 3 4 4 4 5 5 4 6 6 7 8 8
5 4 2 1 2 5 4 2 1 3 4 3 6 8 9 10 8 3 4 5 6 6 6 7 7 7 6 6 6 6 6 7 7 7 7 8 8 8 8 9 10 10 9 7 7 7 8 8 7 6 7 8 8 8 8 5 4 5 4 2 1 1 1 2 1 1 2 2 3 3 3 3 2 3
3 4 3 2 1 6 9 9 7 5 6 8 6 7 9 8 4 5 5 6 6 6 6 6 6 6 6 7 8 8 7 7 7 7 7 7 8 9 10 10 9 9 8 7 8 8 8 8 8 7 8 7 7 6 5 6 4 4 3 3 2 3 4 4 4 3 0 1 3 3 2 1 1 1
9 10 9 9 9 8 7 5 5 4 4 6 7 8 6 3 4 4 4 5 5 6 6 7 8 7 7 7 6 7 7 6 7 7 7 7 7 7 7 8 8 8 8 9 8 8 8 8 8 7 7 7 7 7 7 7 7 6 5 5 4 0 2 3 4 3 3 1 0 1 1 0 0 1
5 6 6 6 7 6 7 5 3 2 4 3 3 3 3 4 5 6 6 6 6 6 7 7 7 7 7 6 6 6 5 6 6 5 7 7 7 6 7 8 8 7 7 8 8 8 8 7 7 6 8 8 7 7 7 6 7 6 5 6 4 5 4 2 2 3 3 3 1 0 1 1 1 2
3 2 3 4 4 5 5 5 5 4 3 2 3 5 6 6 5 5 7 7 5 6 6 7 8 8 7 8 8 7 7 7 7 7 8 8 9 7 7 8 8 7 6 6 7 8 8 7 6 5 5 4 6 5 4 5 6 5 6 6 5 4 3 6 5 3 3 3 3 1 0 1 1 1
1 4 6 6 6 5 5 5 5 5 5 5 5 5 5 6 6 6 7 7 8 8 7 8 8 9 9 9 8 8 8 8 8 6 7 8 9 9 8 9 8 7 7 7 6 7 7 7 7 8 7 7 6 6 6 7 7 6 8 7 4 4 4 4 4 4 3 3 2 2 1 1 2 2
4 4 4 4 3 5 6 5 5 5 5 6 6 6 6 7 6 6 6 7 7 7 8 8 8 9 9 9 9 9 9 9 8 8 8 9 8 9 9 10 9 8 8 8 7 7 6 6 6 6 6 7 7 8 8 9 10 8 7 6 6 6 6 6 5 6 7 3 4 4 2 1 2 3
5 4 4 4 5 4 4 4 4 5 6 6 6 6 6 6 6 6 7 7 7 7 8 8 8 9 9 9 9 9 9 9 9 8 8 8 8 9 9 9 9 9 8 8 7 6 6 6 5 6 6 6 7 8 10 11 9 9 7 7 7 7 5 6 6 6 6 3 5 5 3 2 2 2
5 3 2 4 3 3 4 5 4 5 5 5 5 5 5 6 6 7 8 8 8 8 9 9 9 9 9 9 9 9 9 9 9 9 9 8 8 9 9 9 9 9 8 8 8 7 6 6 6 7 8 7 7 7 7 12 15 9 8 7 6 6 5 7 6 6 6 5 5 6 5 5 4 3
3 2 1 3 2 3 4 5 5 5 5 5 5 5 6 7 8 8 8 9 9 9 9 9 9 9 9 9 9 9 9 9 9 9 9 8 8 9 9 9 9 9 9 8 8 8 6 7 6 7 8 7 8 8 8 1 12 15 9 8 5 5 7 6 6 6 5 6 6 5 5 5 4 4
0 1 3 2 2 3 3 3 4 5 5 5 5 6 6 7 7 8 8 8 9 8 9 9 9 9 9 9 9 9 9 9 9 9 9 8 9 9 8 9 8 8 8 8 7 8 7 7 8 7 7 8 7 7 8 2 1 5 10 9 6 5 6 7 7 7 5 4 5 3 5 6 5 5
2 0 2 2 2 2 3 4 4 5 5 6 6 7 7 8 8 8 8 9 9 9 9 9 9 9 10 10 9 9 9 9 9 9 9 8 8 9 9 8 9 7 7 8 7 7 7 7 8 8 7 7 8 8 6 3 4 4 4 8 7 6 7 8 8 6 7 6 5 6 6 6 9 13
2 2 2 2 2 3 3 4 4 4 6 7 7 7 7 8 9 9 9 9 9 10 9 10 10 10 9 9 9 9 9 10 10 9 9 9 9 9 9 8 9 8 8 8 8 7 7 8 8 8 8 8 8 7 4 4 2 1 2 4 7 12 8 7 7 8 5 6 8 9 8 7 6 3
2 3 1 2 2 3 3 4 5 5 6 7 7 7 8 8 9 9 9 10 10 10 10 10 10 10 10 9 9 9 9 9 9 9 9 9 9 9 10 9 8 7 8 9 8 8 8 8 8 10 9 7 6 0 1 3 4 2 1 3 6 5 11 13 10 9 7 8 7 9 8 8 7 6
3 3 2 3 2 3 4 4 5 5 6 6 7 7 8 8 8 12 11 11 10 10 9 10 9 9 9 9 9 9 9 9 9 9 9 8 9 8 9 8 8 7 7 8 8 8 5 4 5 6 6 5 4 5 7 5 4 2 1 2 3 7 10 6 6 11 14 12 11 9 6 5 5 6
3 3 3 2 2 3 5 4 5 6 6 6 7 7 7 8 8 9 8 9 10 9 9 10 9 9 9 9 8 8 8 9 9 9 9 9 8 8 8 7 8 8 8 8 7 7 6 4 4 4 4 4 5 5 6 5 4 4 3 3 5 5 7 11 13 12 11 9 8 5 3 6 9 8
3 3 2 2 3 4 3 4 5 6 7 7 7 7 7 8 9 9 9 9 10 10 10 10 9 9 9 9 8 8 8 8 8 9 9 9 8 8 8 8 7 7 7 7 6 6 5 5 5 5 5 6 5 5 7 4 4 4 5 5 5 6 8 7 8 8 9 10 10 11 12 11 9 9
4 3 2 4 4 4 4 5 6 7 7 7 7 7 7 7 8 9 9 9 9 10 10 10 9 9 9 9 8 8 8 8 8 8 8 8 8 8 8 8 7 7 6 6 6 6 4 4 4 4 5 6 5 6 5 5 5 6 6 7 7 6 7 7 8 7 6 5 7 12 13 15 17 19
Wind_Direction
100 33 72 126 118 89 93 79 80 66 50 28 9 53 60 94 63 337 340 298 320 323 24 0 330 17 3 1 357 355 346 325 317 325 296 306 307 345 339 318 268 233 222 218 221 225 231 234 232 232 236 240 243 246 246 242 230 222 224 223 221 216 217 216 219 224 229 229 228 226 223 215 208 211
65 44 47 67 107 102 99 126 130 121 155 46 10 339 51 106 73 72 340 300 270 298 334 32 346 349 355 351 343 341 330 329 342 339 343 340 342 339 341 334 323 281 240 228 225 229 232 233 233 232 233 235 238 239 238 236 239 236 225 222 224 221 221 217 216 220 221 227 229 229 226 218 205 206
84 50 22 43 43 32 54 350 285 232 208 196 99 43 43 50 121 97 105 348 285 356 333 309 337 333 337 336 328 324 327 337 347 342 335 324 329 338 330 329 324 317 289 245 236 234 234 234 235 234 235 239 242 245 243 235 232 237 239 231 223 222 224 226 224 227 224 222 227 231 231 224 214 208
115 89 25 76 100 46 41 13 338 300 276 220 232 275 324 317 289 149 133 220 275 294 280 311 318 335 331 327 328 326 334 335 336 331 325 317 320 325 318 317 312 303 296 286 269 259 255 252 249 243 237 237 239 241 242 242 236 228 229 233 235 231 227 226 225 230 232 232 229 229 231 230 227 215
143 163 232 264 188 116 35 346 359 17 346 311 305 304 346 333 314 340 275 256 281 301 295 329 313 318 328 324 336 336 338 330 324 321 315 313 310 302 298 299 301 301 295 285 275 271 267 259 251 247 241 236 235 235 234 232 232 230 228 228 230 232 233 231 230 232 235 229 233 236 238 231 224 222
152 128 96 3 290 88 64 18 352 342 330 348 303 291 279 289 295 256 191 231 252 289 320 327 319 315 337 319 330 332 326 319 318 319 315 310 302 297 295 300 295 294 295 296 298 294 286 277 261 248 242 235 230 229 230 229 228 227 226 228 231 234 235 235 233 231 233 236 235 233 233 232 225 223
161 136 167 277 164 104 59 338 310 314 316 325 57 40 61 54 349 15 23 13 320 316 295 289 317 314 327 328 320 322 314 308 312 315 314 309 308 301 297 294 289 288 294 303 305 306 301 289 272 254 243 239 239 237 233 233 232 230 227 227 230 233 236 237 240 240 237 236 237 238 239 237 229 230
173 178 175 215 188 169 141 269 295 326 358 31 32 20 8 26 14 5 1 11 296 289 326 303 307 306 331 316 315 312 312 312 312 307 305 308 308 305 300 297 306 317 323 321 329 337 330 319 306 280 256 239 228 226 227 228 231 232 230 227 227 229 230 231 234 237 242 243 242 241 241 238 235 238
178 183 182 206 173 165 165 253 281 348 37 43 52 41 7 10 3 10 10 1 12 7 340 315 308 321 312 301 305 306 312 311 306 308 305 307 317 329 327 333 332 331 333 333 330 328 322 312 304 290 267 249 242 235 230 228 228 230 231 230 228 229 230 231 229 230 234 239 246 250 249 245 244 239
175 185 191 189 163 166 169 205 214 163 51 35 34 36 22 18 19 15 5 7 8 12 341 333 322 342 332 326 313 310 324 326 322 325 325 336 337 340 335 331 327 328 323 322 329 329 327 320 312 300 276 260 252 249 244 238 235 237 237 234 232 231 233 234 234 233 232 235 240 246 251 253 249 249
160 158 163 171 150 156 169 164 142 98 61 62 56 38 40 26 37 22 17 12 10 2 349 333 343 325 322 335 328 335 339 330 341 345 343 340 337 339 342 332 329 329 329 326 324 333 327 325 327 322 312 289 265 258 258 257 251 246 241 235 229 228 228 230 232 235 236 234 236 239 242 246 252 252
164 158 151 142 154 138 129 126 129 117 112 83 41 355 57 52 49 35 18 20 10 358 347 333 327 326 315 332 321 330 346 352 352 2 352 336 337 339 333 331 334 323 337 343 347 344 353 352 344 343 337 324 292 268 269 267 264 266 261 248 238 234 233 233 232 231 233 234 236 238 239 240 244 249
146 147 145 135 122 128 132 136 139 139 138 122 287 297 89 83 87 58 44 29 6 341 340 322 328 329 330 326 334 338 352 355 324 321 348 322 332 331 328 330 324 353 8 353 344 340 344 339 340 340 338 337 339 307 262 260 260 252 247 241 234 229 226 226 227 225 227 231 235 237 239 241 241 241
144 155 139 135 139 136 137 136 138 146 153 164 165 194 175 175 126 123 46 338 320 318 319 307 317 322 309 312 323 322 316 318 324 342 349 335 327 328 323 316 324 356 6 355 341 327 334 338 325 331 327 324 332 336 331 307 282 268 253 241 233 227 220 213 212 218 220 222 224 226 230 234 236 236
164 161 146 143 149 148 148 151 158 160 174 180 178 205 203 180 172 176 216 260 245 265 271 279 302 291 294 296 298 300 307 314 328 323 325 319 326 338 341 319 317 11 5 344 333 321 327 333 323 319 316 314 317 321 314 317 318 302 276 250 235 232 230 224 220 221 225 225 226 229 232 235 239 240
170 170 151 152 159 171 176 176 178 185 193 190 205 216 224 216 207 214 193 229 265 246 266 283 268 274 273 284 296 295 304 307 314 312 317 318 327 325 320 306 302 320 8 332 317 302 310 320 315 312 310 311 309 294 287 305 305 307 286 258 245 240 239 240 243 253 257 255 246 243 240 239 240 241
158 165 165 161 183 193 196 191 190 191 222 239 230 230 233 246 234 242 248 234 222 230 253 265 275 261 275 284 274 258 285 296 298 301 300 300 302 299 299 300 301 309 335 319 306 300 309 312 293 290 296 302 310 309 296 290 295 298 295 278 253 231 216 209 217 235 248 254 259 254 250 247 246 243
147 154 170 180 190 199 199 201 195 205 219 233 238 225 216 238 256 255 248 246 243 231 230 245 262 268 255 268 273 276 279 287 284 290 282 276 287 290 284 286 288 296 315 293 299 290 304 304 299 289 286 286 296 298 301 305 270 241 185 171 171 176 178 182 204 225 232 239 243 246 245 245 242 241
131 118 120 134 145 150 176 202 206 215 227 209 216 211 219 224 237 238 242 235 227 218 214 219 239 259 261 262 270 280 292 287 289 287 286 289 287 286 290 287 266 282 254 273 294 288 302 303 292 285 287 284 283 288 295 289 255 209 183 173 165 159 166 177 187 208 247 262 266 267 270 268 265 256
108 113 116 121 163 167 170 179 194 211 200 174 177 188 215 231 242 242 238 234 216 212 221 238 264 286 298 309 302 300 296 297 294 300 301 307 297 296 295 288 299 277 265 252 270 285 290 294 284 291 288 303 299 293 289 272 263 248 173 145 141 125 103 79 32 289 283 282 276 272 264 260 258 258
112 84 358 113 252 296 15 38 55 37 47 63 33 4 346 328 333 310 319 325 346 5 5 356 343 325 309 297 290 286 279 274 273 289 307 298 301 296 295 288 289 279 270 251 254 282 287 286 283 297 305 299 294 296 297 327 299 267 148 103 86 84 77 56 351 333 310 291 285 275 269 264 260 263
41 329 342 326 46 85 82 71 64 55 64 60 46 36 11 354 340 318 331 351 340 342 340 339 331 326 322 317 312 304 296 291 296 302 285 288 295 280 276 286 286 287 266 258 248 270 264 284 282 287 288 300 282 306 339 35 54 54 42 59 82 92 92 77 53 13 354 332 316 299 289 286 286 277
294 71 58 82 96 96 96 82 71 62 63 71 60 51 22 334 314 288 320 333 328 327 326 322 325 316 312 305 297 295 295 294 289 273 275 283 265 274 274 275 291 291 253 237 213 276 289 308 291 328 330 315 286 298 345 25 83 94 112 138 153 163 148 135 114 102 35 358 340 327 311 295 278 263
47 71 77 80 90 94 93 94 92 87 84 90 96 91 339 281 285 276 314 306 306 301 292 287 284 284 282 279 278 279 281 281 274 273 269 263 253 262 270 266 258 264 278 250 249 278 283 291 290 342 298 309 310 333 344 359 175 197 185 167 182 182 163 159 152 142 87 59 16 343 317 302 274 249
103 97 97 96 114 111 113 113 121 134 144 161 171 213 240 227 255 291 295 285 282 284 284 284 286 281 276 268 266 268 268 269 270 271 269 262 255 258 268 271 266 267 265 256 236 256 267 269 286 319 301 288 277 324 305 314 322 278 195 180 195 213 186 125 82 19 8 1 3 357 346 345 301 268
103 138 138 128 162 144 134 134 147 161 174 214 190 238 236 259 272 276 272 284 292 288 287 282 280 277 274 271 266 265 261 258 262 265 267 270 267 254 254 269 281 288 290 284 247 251 266 267 264 287 282 293 287 300 308 303 279 285 55 41 350 357 52 34 20 12 6 357 7 11 15 15 33 32
85 121 131 131 124 122 138 155 200 231 247 231 242 260 274 275 278 291 298 290 287 281 278 278 274 268 264 266 264 259 260 252 248 251 254 265 268 270 272 270 269 273 282 288 281 270 262 270 254 258 275 271 285 296 287 284 295 325 51 88 30 21 13 48 32 360 358 5 360 5 25 39 44 45
74 97 116 160 202 207 234 263 279 301 308 284 287 290 287 285 293 286 280 280 273 274 277 274 270 266 260 263 266 260 254 255 249 249 250 253 256 263 266 269 276 278 278 273 269 265 266 268 263 252 257 266 268 273 281 267 263 278 287 141 114 102 64 96 80 10 351 358 355 359 12 16 4 35
39 32 51 71 349 342 346 348 346 342 319 306 311 318 306 304 288 280 269 270 275 278 275 273 277 278 272 265 265 265 265 263 261 261 259 255 255 257 261 263 261 265 271 269 265 260 258 258 265 263 264 263 262 259 238 258 266 261 253 276 238 188 183 176 163 155 144 27 18 11 6 343 345 8
32 21 11 360 350 342 338 344 335 318 317 335 326 302 302 286 275 267 279 286 286 288 293 296 295 293 291 283 277 274 276 277 274 270 268 267 262 260 265 269 261 258 261 264 261 258 253 251 249 250 254 254 258 267 266 276 266 268 261 251 233 236 237 173 155 147 131 116 109 57 307 95 128 93
20 6 2 327 313 302 319 338 323 300 306 323 324 335 298 295 307 316 310 302 303 304 303 301 300 300 298 298 302 299 293 285 283 274 277 274 271 265 263 264 267 263 257 258 263 264 263 258 252 247 254 255 254 251 262 257 264 261 252 255 178 224 211 186 184 174 149 139 116 60 35 46 33 83
10 344 338 355 21 30 39 26 22 18 6 356 332 325 331 325 322 312 311 314 305 297 294 295 298 297 300 299 296 295 292 289 289 292 289 286 283 274 271 266 264 261 261 254 256 254 252 250 244 233 228 234 252 267 266 260 264 265 263 256 252 266 154 189 187 184 159 130 119 110 59 54 71 58
38 32 23 22 9 28 33 20 7 360 359 349 340 327 317 316 308 309 308 302 296 293 297 294 294 293 294 291 290 287 287 284 283 283 284 280 282 281 271 269 272 268 267 261 252 252 250 256 251 257 261 256 246 244 253 270 257 248 257 258 239 226 194 197 178 168 147 132 162 137 122 62 85 93
65 39 30 4 23 26 24 13 5 352 349 333 325 318 307 304 303 296 293 286 287 289 286 286 288 286 287 287 286 285 282 282 278 275 271 277 273 273 268 269 267 266 263 262 258 256 256 257 265 266 260 259 257 247 247 254 264 260 244 245 226 223 207 180 182 175 173 181 160 152 155 116 67 89
45 21 25 14 25 11 16 7 343 335 330 315 306 300 300 293 292 290 289 289 287 288 287 285 281 281 280 280 280 278 277 277 278 276 270 268 267 264 266 264 265 263 262 261 256 251 249 254 257 265 265 266 269 264 231 231 248 250 250 233 222 219 196 182 173 174 174 176 157 151 147 127 116 96
20 29 57 42 15 10 18 336 327 318 309 302 297 294 305 307 305 304 301 300 299 295 292 289 287 285 283 280 279 277 275 274 273 272 271 265 264 262 259 258 261 262 259 258 256 252 242 246 234 245 255 255 249 260 267 213 213 231 234 238 212 204 184 177 178 170 166 174 175 157 160 158 158 122
14 318 66 52 16 14 346 315 310 300 299 302 306 310 311 312 310 303 298 300 296 292 288 288 286 283 282 280 278 276 274 273 273 271 268 264 261 259 260 257 254 255 256 254 253 255 246 246 235 237 245 248 245 250 257 151 217 217 213 226 219 191 175 166 160 176 187 164 170 166 155 144 145 130
313 274 69 36 20 313 299 296 313 323 319 319 314 312 303 298 299 298 299 297 292 291 289 288 286 283 281 280 280 279 276 270 269 269 266 264 263 259 254 258 257 252 252 254 247 246 238 238 239 234 230 242 253 251 270 249 207 257 218 209 207 189 172 159 170 178 162 150 137 136 117 125 134 144
221 162 96 45 335 321 330 330 333 331 324 319 311 305 303 300 301 301 300 295 294 293 293 291 288 285 283 282 277 276 276 276 272 268 267 262 256 259 259 257 259 252 250 253 248 244 236 233 231 231 228 234 238 247 245 258 240 267 268 227 199 157 178 178 180 154 142 132 103 81 67 83 84 91
193 115 102 66 337 338 332 341 334 331 321 310 301 301 303 303 301 301 299 298 297 295 292 288 286 285 282 279 278 276 270 269 269 269 268 265 261 256 255 255 255 257 253 253 253 246 238 238 233 231 231 232 239 245 235 223 247 296 317 316 206 181 178 179 159 147 128 131 129 122 128 120 111 113
94 67 14 25 1 344 353 332 319 307 296 297 303 302 302 301 300 298 296 296 294 293 292 290 289 287 285 285 282 280 278 275 271 269 268 266 262 257 255 254 256 248 250 253 250 249 241 233 233 232 230 239 243 221 269 234 235 222 346 337 351 227 190 169 153 151 141 147 137 132 131 131 129 131
103 70 7 26 16 348 327 311 301 298 301 300 300 301 301 300 296 296 294 294 294 293 292 292 291 291 288 284 282 279 276 276 278 274 270 269 268 263 254 250 254 253 247 252 251 250 248 228 230 226 224 229 216 210 232 226 218 166 115 28 16 71 86 92 146 146 147 154 146 134 108 88 109 124
93 65 24 339 340 343 325 318 308 306 299 298 296 299 300 299 301 304 305 303 304 301 298 297 295 292 288 286 282 279 278 276 275 274 273 267 263 261 259 250 244 246 245 251 254 259 258 239 232 224 221 204 212 202 226 216 188 143 120 100 94 78 71 85 93 98 94 76 58 74 128 149 153 165
78 59 25 345 6 335 323 313 307 299 295 293 293 296 296 302 306 307 307 306 305 304 303 300 298 297 293 291 287 283 276 275 274 274 273 270 264 261 260 257 250 245 243 244 253 251 248 238 229 218 224 226 216 210 221 185 159 148 137 124 115 106 109 100 82 69 63 62 75 80 78 79 70 76
81 78 43 8 345 316 307 300 303 296 293 292 294 297 298 302 303 306 307 307 305 304 303 302 301 299 295 293 290 286 281 275 274 271 269 268 266 262 258 254 254 247 242 238 243 252 239 237 230 210 220 229 204 207 195 167 148 131 128 128 122 119 125 124 118 106 94 78 74 93 96 96 100 106